This demonstration page uses our WeatherBlox Daily Observations layout. Learn more.

Left ArrowRight Arrow

34.74481, -87.66753

Hourly Observations for April 23, 2017

Temp ( °F °C ) Dew Point ( °F °C ) Humidity (%) Winds ( mph kmh ) Pressure ( in mb ) Visibility ( mi km ) Precip ( " mm )
12:53 am 00:53 Cloudy with Mist and Fog 57 13.9 55 12.8 93 93 N 6 9 29.83 1010 5 8 0.00 0.00
1:53 am 01:53 Cloudy with Mist and Fog 57 13.9 54 12.2 90 90 NNW 6 9 29.82 1010 3 5 0.00 0.00
2:50 am 02:50 Cloudy with Mist and Fog 55 13 54 12 94 94 N 6 9 29.85 1011 4 6 0.00 0.00
2:53 am 02:53 Cloudy with Mist and Fog 55 12.8 53 11.7 93 93 N 5 7 29.82 1010 4 6 0.00 0.00
3:04 am 03:04 Cloudy 55 12.8 52 11.1 90 90 N 5 7 29.85 1011 9 14 0.00 0.00
3:11 am 03:11 Cloudy 55 12.8 53 11.7 93 93 N 6 9 29.85 1011 10 16 0.00 0.00
3:20 am 03:20 Cloudy 55 12.8 52 11.1 90 90 N 6 9 29.85 1011 10 16 0.00 0.00
3:27 am 03:27 Cloudy 55 12.8 52 11.1 90 90 NNW 5 7 29.85 1011 10 16 0.00 0.00
3:45 am 03:45 Cloudy 55 12.8 52 11.1 90 90 VRB 3 6 29.85 1011 10 16 0.00 0.00
3:53 am 03:53 Cloudy 55 12.8 52 11.1 90 90 N 5 7 29.80 1009 10 16 0.00 0.00
4:53 am 04:53 Cloudy 54 12.2 51 10.6 90 90 N 5 7 29.80 1009 10 16 0.00 0.00
5:28 am 05:28 Cloudy 54 12.2 51 10.6 90 90 NNW 6 9 29.83 1010 10 16 0.00 0.00
5:53 am 05:53 Cloudy 54 12.2 51 10.6 90 90 N 6 9 29.81 1009 10 16 0.00 0.00
6:39 am 06:39 Cloudy with Mist and Fog 53 11.7 50 10 89 89 N 7 11 29.85 1011 2 3 0.00 0.00
6:53 am 06:53 Cloudy with Mist and Fog 53 11.7 50 10 89 89 VRB 5 7 29.83 1010 3 4 0.00 0.00
7:02 am 07:02 Cloudy 53 11.7 51 10.6 93 93 VRB 3 6 29.85 1011 7 11 0.00 0.00
7:12 am 07:12 Cloudy 54 12.2 51 10.6 90 90 N 3 6 29.85 1011 10 16 0.00 0.00
7:40 am 07:40 Mostly Cloudy 54 12.2 51 10.6 90 90 WNW 6 9 29.85 1011 10 16 0.00 0.00
7:53 am 07:53 Mostly Cloudy 54 12.2 51 10.6 90 90 NNW 8 13 29.84 1011 10 16 0.00 0.00
8:06 am 08:06 Cloudy 54 12.2 50 10 87 87 WNW 7 11 29.85 1011 10 16 0.00 0.00
8:16 am 08:16 Cloudy 54 12.2 50 10 87 87 NW 8 13 29.85 1011 10 16 0.00 0.00
8:51 am 08:51 Cloudy 54 12 50 10 88 88 NNW 6 9 29.85 1011 10 16 0.00 0.00
8:53 am 08:53 Cloudy 54 12.2 50 10 87 87 NW 8 13 29.84 1011 10 16 0.00 0.00
9:01 am 09:01 Cloudy with Mist and Fog 54 12.2 50 10 87 87 NW 10 17 29.85 1011 6 10 0.00 0.00
9:33 am 09:33 Cloudy with Mist and Fog 53 11.7 50 10 89 89 NNW 7 11 29.85 1011 4 6 0.00 0.00
9:42 am 09:42 Cloudy with Mist and Fog 54 12.2 50 10 87 87 NNW 6 9 29.85 1011 4 6 0.00 0.00
9:48 am 09:48 Cloudy with Mist and Fog 54 12 52 11 94 94 NNW 6 9 29.88 1012 3 5 0.00 0.00
9:53 am 09:53 Cloudy with Mist and Fog 54 12.2 51 10.6 90 90 NNW 9 15 29.85 1011 3 5 0.00 0.00
10:00 am 10:00 Cloudy with Light Rain 54 12.2 51 10.6 90 90 NW 7 11 29.88 1012 3 4 0.00 0.00
10:15 am 10:15 Cloudy with Mist and Fog 54 12.2 51 10.6 90 90 NW 6 9 29.85 1011 4 6 0.00 0.00
10:48 am 10:48 Cloudy 54 12 52 11 94 94 NW 8 13 29.88 1012 7 11 0.00 0.00
10:53 am 10:53 Cloudy 55 12.8 51 10.6 87 87 NNW 7 11 29.86 1011 8 13 0.00 0.00
11:09 am 11:09 Cloudy with Mist and Fog 55 12.8 51 10.6 87 87 NW 7 11 29.88 1012 6 10 0.00 0.00
11:17 am 11:17 Cloudy with Mist and Fog 55 12.8 51 10.6 87 87 WNW 13 20 29.88 1012 4 6 0.00 0.00
11:37 am 11:37 Cloudy with Mist and Fog 54 12.2 51 10.6 90 90 NW 9 15 29.88 1012 4 6 0.00 0.00
11:53 am 11:53 Cloudy with Mist and Fog 55 12.8 51 10.6 87 87 NW 8 13 29.87 1011 4 6 0.00 0.00
12:53 pm 12:53 Cloudy with Light Rain 55 12.8 50 10 83 83 NW 13 20 29.85 1011 9 14 0.00 0.00
1:53 pm 13:53 Cloudy 56 13.3 49 9.4 77 77 NW 7 11 29.85 1011 10 16 0.00 0.00
2:53 pm 14:53 Cloudy 55 12.8 48 8.9 77 77 NW 15 24 29.85 1011 10 16 0.00 0.00
3:33 pm 15:33 Cloudy 53 11.7 48 8.9 83 83 NW 10 17 29.85 1011 9 14 0.00 0.00
3:49 pm 15:49 Cloudy 54 12 48 9 82 82 NW 7 11 29.85 1011 10 16 0.00 0.00
3:53 pm 15:53 Cloudy 55 12.8 48 8.9 77 77 NW 7 11 29.85 1011 10 16 0.00 0.00
4:53 pm 16:53 Cloudy 54 12.2 46 7.8 75 75 NNW 8 13 29.84 1011 10 16 0.00 0.00
5:53 pm 17:53 Cloudy 53 11.7 46 7.8 77 77 NNW 7 11 29.85 1011 10 16 0.00 0.00
6:31 pm 18:31 Cloudy 52 11.1 46 7.8 80 80 NW 9 15 29.85 1011 10 16 0.00 0.00
6:53 pm 18:53 Cloudy 52 11.1 46 7.8 80 80 NNW 7 11 29.86 1011 10 16 0.00 0.00
7:07 pm 19:07 Cloudy 52 11.1 46 7.8 80 80 NW 7 11 29.88 1012 10 16 0.00 0.00
7:53 pm 19:53 Cloudy 52 11.1 47 8.3 83 83 NW 6 9 29.86 1011 10 16 0.00 0.00
8:01 pm 20:01 Cloudy with Light Rain 52 11.1 47 8.3 83 83 NW 7 11 29.88 1012 6 10 0.00 0.00
8:26 pm 20:26 Cloudy with Light Rain 51 10.6 48 8.9 89 89 WNW 7 11 29.88 1012 3 5 0.00 0.00
8:53 pm 20:53 Cloudy with Light Rain 51 10.6 48 8.9 89 89 WNW 7 11 29.88 1012 3 5 0.00 0.00
9:14 pm 21:14 Cloudy with Light Rain 51 10.6 49 9.4 92 92 WNW 6 9 29.88 1012 4 6 0.00 0.00
9:40 pm 21:40 Cloudy with Mist and Fog 51 10.6 49 9.4 92 92 WNW 6 9 29.88 1012 5 8 0.00 0.00
9:53 pm 21:53 Cloudy 51 10.6 49 9.4 92 92 WNW 7 11 29.88 1012 9 14 0.00 0.00
10:13 pm 22:13 Cloudy 52 11.1 49 9.4 89 89 WNW 6 9 29.88 1012 10 16 0.00 0.00
10:53 pm 22:53 Cloudy with Mist and Fog 52 11.1 50 10 93 93 WNW 3 6 29.86 1011 4 6 0.00 0.00
11:53 pm 23:53 Cloudy with Mist and Fog 53 11.7 51 10.6 93 93 NNW 3 6 29.84 1011 5 8 0.00 0.00

Powered by AerisWeather